TimeEST,TemperatureF,Dew PointF,Humidity,Sea Level PressureIn,VisibilityMPH,Wind Direction,Wind SpeedMPH,Gust SpeedMPH,PrecipitationIn,Events,Conditions,WindDirDegrees,DateUTC
12:54 AM,24.8,17.6,74,29.84,3.0,SSW,8.1,-,0.00,Snow,Light Snow,200,2013-02-06 05:54:00
12:56 AM,24.1,18.0,77,29.86,3.0,South,6.9,-,0.00,Snow,Light Snow,190,2013-02-06 05:56:00
1:07 AM,24.8,17.6,74,29.83,8.0,South,6.9,-,0.00,,Overcast,190,2013-02-06 06:07:00
1:26 AM,24.8,17.6,74,29.84,2.5,South,6.9,-,0.00,Snow,Light Snow,190,2013-02-06 06:26:00
1:48 AM,24.8,19.4,80,29.84,6.0,SSW,5.8,-,0.00,Snow,Light Snow,210,2013-02-06 06:48:00
1:56 AM,25.0,19.0,78,29.86,9.0,SSW,8.1,-,0.00,,Overcast,210,2013-02-06 06:56:00
2:56 AM,25.0,19.9,81,29.86,4.0,SSW,9.2,-,0.00,Snow,Light Snow,200,2013-02-06 07:56:00
3:21 AM,24.8,21.2,86,29.84,1.8,SSW,9.2,-,0.00,Snow,Light Snow,200,2013-02-06 08:21:00
3:38 AM,24.8,21.2,86,29.84,1.8,SSW,8.1,16.1,0.00,Snow,Light Snow,200,2013-02-06 08:38:00
3:49 AM,24.8,21.2,86,29.85,2.5,Variable,4.6,-,0.00,Snow,Light Snow,0,2013-02-06 08:49:00
3:56 AM,25.0,21.9,88,29.87,2.0,West,3.5,-,0.00,Snow,Light Snow,260,2013-02-06 08:56:00
4:01 AM,24.8,21.2,86,29.85,1.2,Calm,Calm,-,0.00,Snow,Light Snow,0,2013-02-06 09:01:00
4:08 AM,24.8,21.2,86,29.85,0.8,Calm,Calm,-,0.01,Snow,Light Snow,0,2013-02-06 09:08:00
4:22 AM,24.8,23.0,93,29.86,1.2,SSW,5.8,-,0.01,Snow,Light Snow,210,2013-02-06 09:22:00
4:33 AM,24.8,23.0,93,29.86,2.5,South,5.8,-,0.01,Snow,Light Snow,190,2013-02-06 09:33:00
4:41 AM,26.6,23.0,86,29.86,4.0,SSW,4.6,-,0.01,Snow,Light Snow,200,2013-02-06 09:41:00
4:56 AM,28.4,24.8,86,29.86,7.0,WSW,8.1,-,N/A,,Overcast,250,2013-02-06 09:56:00
5:56 AM,28.9,21.9,75,29.91,10.0,West,11.5,-,0.00,,Unknown,270,2013-02-06 10:56:00
6:56 AM,28.0,19.9,72,29.95,10.0,West,13.8,21.9,0.00,,Overcast,280,2013-02-06 11:56:00
7:56 AM,26.1,18.0,71,30.00,10.0,WNW,16.1,-,N/A,,Overcast,300,2013-02-06 12:56:00
8:20 AM,24.8,17.6,74,29.99,10.0,West,8.1,-,N/A,,Mostly Cloudy,280,2013-02-06 13:20:00
8:56 AM,25.0,12.9,60,30.05,9.0,West,18.4,27.6,N/A,,Clear,280,2013-02-06 13:56:00
9:56 AM,24.1,12.9,62,30.09,10.0,West,19.6,25.3,N/A,,Mostly Cloudy,280,2013-02-06 14:56:00
10:56 AM,24.1,12.0,60,30.13,10.0,West,18.4,26.5,N/A,,Clear,280,2013-02-06 15:56:00
11:56 AM,24.1,10.9,57,30.15,10.0,West,16.1,-,N/A,,Clear,270,2013-02-06 16:56:00
12:56 PM,24.1,8.1,51,30.18,10.0,WNW,16.1,-,N/A,,Partly Cloudy,300,2013-02-06 17:56:00
1:56 PM,23.0,1.9,40,30.21,10.0,WNW,8.1,-,N/A,,Clear,300,2013-02-06 18:56:00
2:56 PM,21.9,1.0,40,30.24,10.0,WNW,10.4,-,N/A,,Clear,290,2013-02-06 19:56:00
3:56 PM,21.0,-0.0,40,30.27,10.0,Variable,3.5,-,N/A,,Overcast,0,2013-02-06 20:56:00
4:56 PM,21.0,3.0,46,30.29,10.0,WSW,10.4,-,N/A,,Overcast,250,2013-02-06 21:56:00
5:56 PM,19.9,3.9,50,30.31,10.0,West,8.1,-,N/A,,Overcast,260,2013-02-06 22:56:00
6:56 PM,18.0,3.0,52,30.33,10.0,West,6.9,-,N/A,,Overcast,280,2013-02-06 23:56:00
7:56 PM,17.1,1.9,52,30.36,10.0,WNW,5.8,-,N/A,,Overcast,290,2013-02-07 00:56:00
8:56 PM,12.0,-0.9,56,30.40,10.0,Calm,Calm,-,N/A,,Clear,0,2013-02-07 01:56:00
9:56 PM,3.9,-2.9,73,30.42,10.0,Calm,Calm,-,N/A,,Clear,0,2013-02-07 02:56:00
10:56 PM,10.0,-2.0,58,30.41,10.0,NW,6.9,-,N/A,,Clear,310,2013-02-07 03:56:00
11:56 PM,9.0,-2.0,61,30.42,10.0,North,4.6,-,N/A,,Partly Cloudy,350,2013-02-07 04:56:00